This is the latest recevied weather packets stored in our database for station/object DB0OHL. If no packets are shown the sender has not sent any weather packets the latest 10 day(s).
| Time | Temp. | Humidity | Pressure | Rain* | Wind** | Luminosity | Snow |
|---|---|---|---|---|---|---|---|
| 1777194929 | 11.67° C | 67% | 1025.4 hPa | 0 mm | - | - | - |
| 1777194327 | 10.56° C | 69% | 1025.4 hPa | 0 mm | - | - | - |
| 1777193122 | 11.11° C | 70% | 1025.6 hPa | 0 mm | - | - | - |
| 1777192519 | 11.11° C | 71% | 1025.7 hPa | 0 mm | - | - | - |
| 1777191917 | 11.11° C | 71% | 1025.5 hPa | 0 mm | - | - | - |
| 1777191374 | 11.11° C | 70% | 1025.8 hPa | 0 mm | - | - | - |
| 1777190772 | 10° C | 73% | 1025.8 hPa | 0 mm | - | - | - |
| 1777190169 | 10° C | 75% | 1025.9 hPa | 0 mm | - | - | - |
| 1777189567 | 10° C | 74% | 1026 hPa | 0 mm | - | - | - |
| 1777188964 | 10.56° C | 75% | 1026.2 hPa | 0 mm | - | - | - |
| 1777188362 | 10° C | 76% | 1026.2 hPa | 0 mm | - | - | - |
| 1777187759 | 10° C | 76% | 1026.3 hPa | 0 mm | - | - | - |
| 1777187157 | 8.89° C | 79% | 1026.2 hPa | 0 mm | - | - | - |
| 1777186554 | 8.89° C | 81% | 1026.2 hPa | 0 mm | - | - | - |
| 1777185349 | 8.33° C | 84% | 1026.2 hPa | 0 mm | - | - | - |
| 1777184746 | 7.78° C | 85% | 1026.1 hPa | 0 mm | - | - | - |
| 1777184144 | 7.22° C | 87% | 1026.1 hPa | 0 mm | - | - | - |
| 1777182939 | 6.11° C | 90% | 1025.8 hPa | 0 mm | - | - | - |
| 1777181734 | 5.56° C | 92% | 1025.5 hPa | 0 mm | - | - | - |
| 1777181131 | 5.56° C | 93% | 1025.4 hPa | 0 mm | - | - | - |
| 1777179926 | 5° C | 94% | 1025.1 hPa | 0 mm | - | - | - |
| 1777179324 | 5° C | 95% | 1025 hPa | 0 mm | - | - | - |
| 1777178119 | 4.44° C | 95% | 1024.8 hPa | 0 mm | - | - | - |
| 1777177516 | 4.44° C | 95% | 1024.6 hPa | 0 mm | - | - | - |
| 1777176974 | 4.44° C | 94% | 1024.5 hPa | 0 mm | - | - | - |
* Rain latest hour (hover to see other rain measurements)
** Current wind speed in m/s (hover to see current wind gust speed)